This demonstration page uses our WeatherBlox Daily Observations layout. Learn more.

Left ArrowRight Arrow

44.89941, -97.11507

Hourly Observations for April 21, 2016

Temp ( °F °C ) Dew Point ( °F °C ) Humidity (%) Winds ( mph kmh ) Pressure ( in mb ) Visibility ( mi km ) Precip ( " mm )
12:53 am 00:53 Clear with Mist and Fog 45 7.2 43 6.1 93 93 NNE 6 9 29.90 1012 4 6 0.00 0.00
1:07 am 01:07 Clear with Mist and Fog 44 6.7 42 5.6 93 93 N 5 7 29.91 1013 2 3 0.00 0.00
1:20 am 01:20 Clear with Mist and Fog 44 6.7 42 5.6 93 93 N 8 13 29.91 1013 3 5 0.00 0.00
1:53 am 01:53 Clear with Mist and Fog 43 6.1 41 5 93 93 NNE 3 6 29.89 1012 2 3 0.00 0.00
1:55 am 01:55 Clear with Mist and Fog 43 6.1 42 5.6 97 97 NNE 3 6 29.91 1013 1 2 0.00 0.00
1:58 am 01:58 Mostly Cloudy with Fog 44 6.7 42 5.6 93 93 NNE 3 6 29.91 1013 1 1 0.00 0.00
2:07 am 02:07 Mostly Cloudy with Fog 44 6.7 42 5.6 93 93 N 3 6 29.91 1013 0 0 0.00 0.00
2:32 am 02:32 Clear with Fog 44 6.7 43 6.1 96 96 N 5 7 29.91 1013 1 1 0.00 0.00
2:46 am 02:46 Clear with Mist and Fog 43 6.1 42 5.6 97 97 NNW 5 7 29.88 1012 1 2 0.00 0.00
2:51 am 02:51 Clear with Mist and Fog 43 6 43 6 100 100 N 5 7 29.88 1012 3 4 0.00 0.00
2:53 am 02:53 Clear with Mist and Fog 44 6.7 42 5.6 93 93 N 3 6 29.88 1012 3 5 0.00 0.00
3:53 am 03:53 Clear with Mist and Fog 42 5.6 40 4.4 92 92 N 5 7 29.88 1012 4 6 0.00 0.00
4:53 am 04:53 Clear with Mist and Fog 42 5.6 40 4.4 92 92 N 5 7 29.90 1012 4 6 0.00 0.00
5:23 am 05:23 Clear with Mist and Fog 42 5.6 41 5 96 96 NNE 3 6 29.94 1014 2 2 0.00 0.00
5:28 am 05:28 Clear with Mist and Fog 42 5.6 40 4.4 92 92 Calm 29.94 1014 1 1 0.00 0.00
5:40 am 05:40 Clear with Mist and Fog 43 6.1 41 5 93 93 N 5 7 29.91 1013 2 2 0.00 0.00
5:48 am 05:48 Clear with Mist and Fog 43 6 39 4 87 87 N 5 7 29.94 1014 3 5 0.00 0.00
6:04 am 06:04 Clear with Mist and Fog 42 5.6 40 4.4 92 92 N 3 6 29.94 1014 2 3 0.00 0.00
6:36 am 06:36 Sunny with Mist and Fog 41 5 40 4.4 96 96 NW 6 9 29.94 1014 1 2 0.00 0.00
6:49 am 06:49 Sunny with Fog 39 4 39 4 100 100 NNW 6 9 29.94 1014 0 0 0.00 0.00
6:53 am 06:53 Sunny with Fog 40 4.4 39 3.9 97 97 NNW 6 9 29.91 1013 0 0 0.00 0.00
7:09 am 07:09 Mostly Cloudy with Fog 41 5 39 3.9 93 93 N 3 6 29.94 1014 0 0 0.00 0.00
7:21 am 07:21 Mostly Cloudy with Mist and Fog 41 5 39 3.9 93 93 NNW 5 7 29.94 1014 1 2 0.00 0.00
7:23 am 07:23 Partly Cloudy with Mist and Fog 41 5 40 4.4 96 96 NNW 6 9 29.94 1014 2 2 0.00 0.00
7:29 am 07:29 Partly Cloudy with Mist and Fog 43 6.1 41 5 93 93 NW 6 9 29.97 1015 3 5 0.00 0.00
7:53 am 07:53 Sunny with Mist and Fog 48 8.9 46 7.8 93 93 NNW 5 7 29.91 1013 5 8 0.00 0.00
8:53 am 08:53 Sunny 56 13.3 48 8.9 75 75 NNW 12 19 29.91 1013 10 16 0.00 0.00
9:53 am 09:53 Sunny 60 15.6 49 9.4 67 67 NNW 12 19 29.90 1012 10 16 0.00 0.00
10:53 am 10:53 Sunny 60 15.6 48 8.9 65 65 NNW 15 24 29.92 1013 10 16 0.00 0.00
11:53 am 11:53 Mostly Sunny 59 15 47 8.3 64 64 N 15 24 29.95 1014 10 16 0.00 0.00
12:53 pm 12:53 Mostly Cloudy 55 12.8 44 6.7 67 67 N 23 37 29.97 1015 10 16 0.00 0.00
1:00 pm 13:00 Mostly Cloudy 55 12.8 45 7.2 69 69 N 21 33 29.97 1015 10 16 0.00 0.00
1:53 pm 13:53 Cloudy 51 10.6 43 6.1 74 74 N 20 31 29.99 1016 10 16 0.00 0.00
2:44 pm 14:44 Cloudy 55 12.8 44 6.7 67 67 N 22 35 29.97 1015 10 16 0.00 0.00
2:53 pm 14:53 Cloudy 56 13.3 44 6.7 65 65 N 21 33 29.98 1015 10 16 0.00 0.00
3:49 pm 15:49 Partly Cloudy 59 15 43 6 55 55 N 22 35 29.97 1015 10 16 0.00 0.00
3:53 pm 15:53 Partly Cloudy 60 15.6 43 6.1 53 53 NNE 21 33 29.98 1015 10 16 0.00 0.00
4:53 pm 16:53 Sunny 60 15.6 37 2.8 42 42 N 21 33 29.99 1016 10 16 0.00 0.00
5:53 pm 17:53 Sunny 59 15 35 1.7 41 41 N 22 35 30.00 1016 10 16 0.00 0.00
6:53 pm 18:53 Sunny 56 13.3 34 1.1 44 44 N 20 31 30.03 1017 10 16 0.00 0.00
7:53 pm 19:53 Sunny 53 11.7 35 1.7 51 51 N 12 19 30.04 1017 10 16 0.00 0.00
8:53 pm 20:53 Clear 45 7.2 35 1.7 68 68 N 10 17 30.07 1018 10 16 0.00 0.00
9:53 pm 21:53 Clear 44 6.7 34 1.1 68 68 NNE 12 19 30.09 1019 10 16 0.00 0.00
10:53 pm 22:53 Clear 41 5 34 1.1 76 76 N 9 15 30.11 1020 10 16 0.00 0.00
11:53 pm 23:53 Clear 38 3.3 32 0 79 79 N 9 15 30.12 1020 10 16 0.00 0.00

Powered by AerisWeather